Weather History for Mercury, NV

Change the Weather History Date:

Tuesday, February 4, 2014

  Actual Average Record
Temperature  
Mean Temperature 38 °F -  
Max Temperature 52 °F 54 °F 73 °F (2007)
Min Temperature 24 °F 33 °F 24 °F (2014)
Degree Days  
Heating Degree Days 27    
Moisture  
Dew Point 15 °F    
Average Humidity 42    
Maximum Humidity 69    
Minimum Humidity 12    
Precipitation  
Precipitation 0.00 in - - ()
Sea Level Pressure  
Sea Level Pressure 29.97 in    
Wind  
Wind Speed 2 mph (ESE)    
Max Wind Speed 12 mph    
Max Gust Speed -    
Visibility 10 miles    
Events      
Averages and records for this station are not official NWS values.
T = Trace of Precipitation, MM = Missing Value Source: NWS Daily Summary

Daily Weather History Graph

Daily Weather History Graph

Search for Another Location

Airport:

Trip Planner

Search our weather history database for the weather conditions in past years. The results will help you decide how hot, cold, wet, or windy it might be!

Date:

Astronomy

Feb. 04, 2014 Rise Set
Actual Time 6:43 AM PST 5:13 PM PST
Civil Twilight 6:16 AM PST 5:40 PM PST
Nautical Twilight 5:45 AM PST 6:11 PM PST
Astronomical Twilight 5:15 AM PST 6:41 PM PST
Moon 9:33 AM PST (2/4) 11:01 PM PST (2/4)
Length of Visible Light 11h 24m
Length of Day
10h 30m
Waxing Crescent, 30% of the Moon is Illuminated
Feb 4
Waxing Crescent
Feb 6
First Quarter
Feb 14
Full
Feb 22
Last Quarter
Mar 1
New

Hourly Weather History & Observations

Time (PST) Temp. Windchill Dew Point Humidity Pressure Visibility Wind Dir Wind Speed Gust Speed Precip Events Conditions
12:52 AM 33.1 °F - 19.9 °F 59% 29.88 in 10.0 mi Calm Calm - N/A   Clear
1:52 AM 28.9 °F - 19.0 °F 67% 29.90 in 10.0 mi Calm Calm - N/A   Clear
2:52 AM 28.0 °F - 19.0 °F 69% 29.91 in 10.0 mi Calm Calm - N/A   Clear
3:52 AM 30.0 °F - 18.0 °F 61% 29.91 in 10.0 mi Calm Calm - N/A   Clear
4:52 AM 27.0 °F 23.0 °F 17.1 °F 66% 29.93 in 10.0 mi ESE 3.5 mph - N/A   Clear
5:52 AM 27.0 °F 23.0 °F 17.1 °F 66% 29.96 in 10.0 mi ESE 3.5 mph - N/A   Clear
6:52 AM 27.0 °F - 16.0 °F 63% 29.98 in 10.0 mi Calm Calm - N/A   Clear
7:52 AM 32.0 °F - 17.1 °F 54% 29.99 in 10.0 mi Calm Calm - N/A   Overcast
8:52 AM 37.9 °F - 18.0 °F 45% 30.00 in 10.0 mi Calm Calm - N/A   Partly Cloudy
9:52 AM 41.0 °F 39.0 °F 16.0 °F 36% 30.01 in 10.0 mi Variable 3.5 mph - N/A   Clear
10:52 AM 46.9 °F - 12.9 °F 25% 30.00 in 10.0 mi ENE 11.5 mph - N/A   Clear
11:52 AM 48.0 °F - 12.9 °F 24% 29.98 in 10.0 mi Variable 3.5 mph - N/A   Clear
12:52 PM 48.9 °F - 12.9 °F 24% 29.96 in 10.0 mi North 6.9 mph - N/A   Clear
1:52 PM 48.9 °F - 12.9 °F 24% 29.95 in 10.0 mi Variable 3.5 mph - N/A   Clear
2:52 PM 51.1 °F - 12.0 °F 21% 29.94 in 10.0 mi Variable 5.8 mph - N/A   Clear
3:52 PM 48.9 °F - 12.9 °F 24% 29.93 in 10.0 mi SSW 6.9 mph - N/A   Clear
4:52 PM 46.9 °F - 12.9 °F 25% 29.95 in 10.0 mi SSW 4.6 mph - N/A   Clear
5:52 PM 43.0 °F - 12.9 °F 30% 29.97 in 10.0 mi Calm Calm - N/A   Clear
6:52 PM 39.0 °F - 12.9 °F 34% 29.99 in 10.0 mi Calm Calm - N/A   Clear
7:52 PM 37.0 °F 34.5 °F 14.0 °F 39% 29.99 in 10.0 mi ESE 3.5 mph - N/A   Clear
8:52 PM 35.1 °F 32.2 °F 15.1 °F 44% 30.01 in 10.0 mi East 3.5 mph - N/A   Clear
9:52 PM 34.0 °F - 16.0 °F 48% 30.02 in 10.0 mi Calm Calm - N/A   Clear
10:52 PM 32.0 °F - 16.0 °F 52% 30.02 in 10.0 mi Calm Calm - N/A   Clear
11:52 PM 33.1 °F 28.7 °F 16.0 °F 50% 30.02 in 10.0 mi East 4.6 mph - N/A   Clear